Lid_Strength_Index
2 1 1 0 0 -0 1 2 2 2 3 3 3 2 3 3 3 3 3 2 -1 -2 -2 -2 -2 -1 -1 -1 -1 -1 -1 -1 -0 0 0 0 1 1 0 1 2 2 1
1 2 1 1 1 1 1 2 2 2 3 2 2 2 2 3 3 3 3 3 1 -1 -2 -2 -2 -2 -2 -2 -2 -2 -2 -2 -1 -1 -0 -0 -0 -0 -0 0 1 1 1
1 1 1 0 1 1 1 1 2 2 2 1 1 1 2 2 3 3 3 3 3 1 -1 -2 -2 -2 -2 -2 -2 -2 -2 -2 -2 -2 -2 -2 -1 -1 -0 -0 -0 -0 0
1 1 1 1 0 1 1 1 2 2 2 2 2 2 2 2 2 2 2 3 3 2 1 -1 -1 -1 -1 -2 -2 -2 -2 -2 -2 -2 -2 -2 -1 -1 -1 -1 -1 -1 -1
1 1 1 1 1 1 2 2 2 2 2 3 3 3 3 2 2 2 2 2 2 2 2 2 1 1 -0 -1 -2 -2 -1 -1 -1 -1 -2 -2 -1 -1 -1 -1 -1 -1 -1
1 1 1 1 1 2 2 2 3 3 3 3 3 4 4 3 3 3 3 2 3 3 4 4 4 4 2 -0 -1 -1 -0 -1 -1 -1 -1 -1 -0 -1 -1 -1 -1 -1 -1
1 2 2 2 2 2 2 3 4 4 4 4 4 5 4 4 4 4 4 4 4 4 4 5 5 5 5 2 2 1 0 -0 -0 -0 -0 -0 -0 -0 -0 -1 -1 -1 -1
2 2 2 3 3 2 2 3 3 5 4 4 5 6 6 6 7 6 6 6 6 6 5 5 5 5 6 6 6 3 2 1 1 1 0 -0 -0 -0 -1 -1 -1 -1 -1
2 2 2 3 3 2 3 3 3 4 4 5 5 5 9 9 8 6 7 6 6 6 6 6 6 6 6 5 5 5 4 3 2 2 1 1 1 0 -0 -0 -0 -0 -1
3 1 2 2 2 2 3 3 3 4 4 5 5 5 7 7 8 8 7 7 7 7 6 6 6 5 5 6 6 8 6 5 5 5 4 3 3 2 2 2 2 1 1
4 4 1 2 2 2 2 3 3 3 3 4 5 5 6 6 6 7 7 6 5 4 4 4 5 5 7 9 8 9 8 7 7 7 6 6 5 5 4 4 3 2 1
6 5 4 1 1 2 2 2 2 3 3 3 4 5 5 6 6 6 7 6 6 5 4 4 6 8 9 10 11 10 9 9 8 8 7 7 7 6 5 3 2 2 2
8 7 6 5 2 1 1 1 2 2 3 3 3 4 4 4 4 5 5 5 6 5 5 7 7 9 11 11 11 11 11 10 9 8 8 8 7 6 5 4 3 3 3
9 7 6 5 4 2 1 1 2 2 2 2 2 3 3 3 3 3 5 5 7 6 6 8 9 10 10 12 12 12 13 11 10 9 9 8 7 5 5 5 4 4 4
7 7 6 5 4 4 2 1 2 2 2 2 2 2 2 2 3 3 3 4 5 7 7 8 10 12 11 12 13 13 13 12 10 9 8 7 6 6 6 6 5 5 5
8 7 6 4 3 4 2 1 2 2 2 3 3 3 4 5 5 5 4 4 4 5 7 8 10 12 13 13 13 13 13 12 10 8 8 8 7 7 7 6 6 6 5
9 8 7 5 5 4 3 3 4 4 5 6 6 6 7 7 8 8 8 7 8 7 7 11 11 11 13 14 14 13 12 13 12 9 9 8 8 8 7 7 7 7 6
8 8 7 7 6 6 6 5 6 7 7 8 8 8 9 9 9 9 9 10 10 10 8 12 13 13 14 15 15 14 13 12 13 11 10 9 9 9 8 8 8 7 7
9 9 8 8 9 8 8 8 9 10 10 10 9 9 9 9 10 11 11 12 12 12 13 13 15 15 15 15 15 14 14 15 13 12 11 11 10 9 9 9 8 8 8
10 10 9 9 9 9 9 9 10 10 11 11 11 11 11 11 11 12 12 13 14 14 14 14 15 15 16 15 15 16 16 16 16 14 14 13 12 12 10 10 9 9 8
11 10 10 10 10 9 9 9 10 10 11 12 12 12 12 12 12 12 13 13 14 15 14 15 16 16 17 16 15 15 17 20 21 16 17 16 16 15 13 12 10 9 8
12 11 11 11 11 10 10 10 10 11 12 12 13 13 12 12 12 11 12 12 13 15 15 16 16 16 15 15 16 18 19 23 22 18 17 18 17 16 15 13 9 9 8
12 12 12 11 12 11 10 11 11 12 12 12 12 13 13 14 14 13 12 12 13 12 13 15 15 15 15 15 15 19 19 18 19 18 18 21 20 18 16 14 10 9 8
13 13 12 12 12 11 11 11 12 13 13 13 13 14 14 15 14 14 15 14 15 14 14 13 14 14 14 15 15 15 17 21 23 20 17 23 21 21 19 15 11 10 9
13 13 13 13 13 13 12 12 13 14 14 14 13 13 13 14 13 13 14 14 13 13 11 11 12 12 12 13 14 17 21 24 25 23 19 19 22 22 22 19 13 11 10
14 14 14 15 15 14 12 12 14 14 15 14 14 14 14 14 12 12 14 14 15 14 14 14 14 14 15 15 15 16 17 24 27 24 20 22 20 20 21 20 16 14 13